Regional Weather Roundup
Issued by NWS Upton, NY

Current Version | Previous Version | Graphics & Text | Print | Product List | Glossary Off
Versions: 1 2 3 4 5 6 7 8 9 10 11 12 13 14 15 16 17 18 19 20 21 22 23 24 25 26
000 ASUS41 KOKX 280909 RWROKX REGIONAL WEATHER ROUNDUP NATIONAL WEATHER SERVICE NEW YORK NY 500 AM EDT FRI JUL 28 2017 NOTE: "FAIR" INDICATES FEW OR NO CLOUDS BELOW 12,000 FEET WITH NO SIGNIFICANT WEATHER AND/OR OBSTRUCTIONS TO VISIBILITY. NYZ071-072-176-178-NJZ106-104-281000- NEW YORK CITY METRO AREA CITY SKY/WX TMP DP RH WIND PRES REMARKS Central Park CLEAR 72 69 90 CALM 29.88R Bronx Bot Gard N/A 68 66 94 CALM 29.88R LaGuardia APRT PTCLDY 74 71 91 CALM 29.84R Kennedy INTL PTCLDY 72 72 100 SW3 29.85S Breezy Point N/A 72 N/A N/A W1 N/A Newark/Liberty PTCLDY 72 69 90 CALM 29.84S Teterboro CLEAR 69 68 96 CALM 29.84R FOG $$ NYZ177-179-078>081-281000- LONG ISLAND NEW YORK CITY SKY/WX TMP DP RH WIND PRES REMARKS Jones Beach N/A 72 N/A N/A MISG N/A Matinecock PT N/A 70 N/A N/A NE1 N/A Farmingdale CLEAR 69 68 96 CALM 29.85S MacArthur/ISP CLEAR 68 68 100 CALM 29.85R FOG Shirley PTCLDY 70 69 97 CALM 29.86R Mt Sinai Harb N/A N/A N/A N/A MISG N/A Westhampton CLOUDY 69 67 93 CALM 29.87R FOG East Hampton CLOUDY 70 69 96 CALM 29.85S Montauk N/A 72 71 97 CALM 29.86S $$ NYZ052-065-067-281000- HUDSON VALLEY CITY SKY/WX TMP DP RH WIND PRES REMARKS White Plains PTCLDY 66 65 96 CALM 29.86R FOG Larchmont Harb N/A 68 N/A N/A NW2 N/A Croton O-T Hud N/A 68 N/A N/A NE3 N/A Newburgh FOG 68 68 100 CALM 29.88S VSB 1/2 Montgomery FOG 65 65 100 N3 29.86S VSB 1/4 Poughkeepsie CLOUDY 66 64 93 CALM 29.86R Albany PTCLDY 61 59 93 CALM 29.87S $$ NJZ001-105-106-008-010-013-015-019>022-104-281000- NEW JERSEY CITY SKY/WX TMP DP RH WIND PRES REMARKS Newark/Liberty PTCLDY 72 69 90 CALM 29.84S Teterboro CLEAR 69 68 96 CALM 29.84R FOG Caldwell MOCLDY 65 65 100 CALM 29.86S FOG Somerville MOCLDY 66 65 96 CALM 29.84S FOG Linden FAIR 70 67 90 CALM 29.85R Perth Amboy N/A 70 N/A N/A MISG N/A Sussex FOG 66 66 100 CALM 29.87R VSB 1/4 Andover N/A 64 64 100 CALM 29.87S Trenton CLOUDY 70 69 97 CALM 29.85R Millville CLOUDY 69 69 100 CALM 29.83R Atlantic City FOG 69 69 100 CALM 29.83S VSB 1/4 Wrightstown CLOUDY 72 70 96 CALM 29.82S Toms River CLOUDY 69 69 100 CALM 29.85R Belmar CLOUDY 72 70 93 CALM 29.86S $$ PAZ047>061-062-071-281000- EASTERN PENNSYLVANIA CITY SKY/WX TMP DP RH WIND PRES REMARKS Philadelphia MOCLDY 72 70 93 E5 29.84R Allentown FOG 66 64 93 N3 29.86R VSB 1/4 Scranton CLEAR 65 63 93 CALM 29.89R $$ CTZ002-004>006-009-010-012-RIZ004-006-007-MAZ004-011-015-281000- SOUTHERN NEW ENGLAND IN CT CITY SKY/WX TMP DP RH WIND PRES REMARKS Bradley INTL FOG 64 64 100 CALM 29.86R VSB 3/4 Hartford FOG 67 66 97 CALM 29.85R VSB 1/2 Danbury CLOUDY 69 68 96 CALM 29.88S FOG Wtrbury/Oxford CLOUDY 68 63 83 CALM 29.88S Bridgeport CLOUDY 70 67 90 N3 29.85S Meriden CLOUDY 64 63 96 CALM 29.86R FOG New Haven PTCLDY 66 65 96 CALM 29.86S FOG Chester FAIR 66 66 100 CALM 29.87S FOG Groton PTCLDY 69 68 96 W3 29.84S Wilimantic FOG 63 63 100 CALM 29.86R VSB 1/4 IN RI CITY SKY/WX TMP DP RH WIND PRES REMARKS Providence CLEAR 69 68 96 W7 29.85S Block Island CLOUDY 70 68 93 SW8 29.86S Westerly PTCLDY 70 68 93 CALM 29.86R IN MA CITY SKY/WX TMP DP RH WIND PRES REMARKS Boston PTCLDY 67 65 93 W6 29.83R Worcester MOCLDY 63 62 97 W7 29.88R Westfield FOG 64 64 100 CALM 29.86R VSB 1/4 Provincetown CLEAR 64 63 96 SW7 29.84R FOG Nantucket MOCLDY 66 66 100 SW8 29.86R $$ ANZ330-335-338-340-345-350-353-355-281000- COASTAL MARINE OBSERVATIONS STATION/POSITION TIME SKY/WX TEMP WIND PRES VSBY WAVE AIR SEA DIR/SP/G HT/PER (UTC) (F) (DEG/KT/KT) (MB) (MI) (FT/S) NY HARB ENTRANCE 0750 73 73 250/ 4/ 6 1010.2 2/ 5 20 S FIRE ISLAND 0850 73 74 210/ 2/ 4 1010.3 3/ 5 GREAT SOUTH BAY 0830 73 75 230/ 4/ 6 N/A 23 SSW MONTAUK P 0750 72 70 1011.2 3/ 5 15 E BARNEGAT LI 0830 73 N/A 3/ 5 HUDSON CANYON 0750 72 72 180/ 10/ 12 1010.2 3/ 5 KINGS POINT 0830 71 72 CALM / 1 1010.5 EXECUTION ROCKS 0845 72 40/ 2/ 4 N/A CENTRAL LI SOUND 0815 71 110/ 2/ 2 N/A 1 EASTERN LI SOUND NOT AVBL ROBBINS REEF 0836 CALM / 1 1011.2 $$ >>>>>>>>>>>>>>>>>>>>>>>>>>>> KEY <<<<<<<<<<<<<<<<<<<<<<<<<<< > < > SKY/WX - Sky Condition/Present Weather < > TMP - Temperature in Fahrenheit < > DP - Dew Point in Fahrenheit < > RH - Relative Humidity in Percent < > WIND - Direction (from) and Speed in MPH < > PRES - Mean Sea Level Pressure (inches of Hg) < > WCI - Wind Chill Index < > VSB - VISIBILITY IN MILES < > HX - HEAT INDEX < > TC - TEMPERATURE IN CELSIUS < > VRB - VARIABLE WIND DIRECTION < > < >>>>>>>>>>>>>>>>>>>>>>>>>>>> KEY <<<<<<<<<<<<<<<<<<<<<<<<<<<

USA.gov is the U.S. government's official web portal to all federal, state and local government web resources and services.